Dewpoint
-12 -11 -2 3 7 8 8 8 7 6 8 5 7 5 7 9 9 10 13 7 6 6 8 12 11 11 11 9 8 8 7 7 6 9 9 8 10 10 7 4 2 -0 2 4 2 5 8 -2 0
-15 -12 -4 1 8 9 8 7 7 5 8 6 7 9 11 12 12 12 12 8 7 6 6 8 10 11 10 8 7 6 5 5 5 5 8 9 11 10 3 -2 -4 -6 -7 -6 -2 6 -2 7 8
-11 -8 -0 1 8 5 5 7 5 5 7 7 9 10 11 13 13 11 10 9 7 6 4 8 10 10 8 5 4 2 3 6 4 3 2 8 10 7 -5 -5 -5 -4 -7 -10 -7 -0 8 9 8
-9 -2 -4 -4 -0 3 5 5 4 5 6 7 9 12 12 13 12 9 8 8 6 4 6 9 9 7 4 2 1 -0 2 4 1 -3 -0 3 7 -3 -7 -5 -4 -5 -6 -5 1 8 8 8 8
-14 -4 -3 -3 -4 -7 3 4 5 5 7 8 9 12 12 12 10 8 7 7 3 7 7 9 6 2 -1 -0 0 -1 -4 -3 -3 -3 2 4 2 -8 -7 -6 -6 -5 -5 -3 5 7 7 8 8
-10 -8 -6 -6 -8 -10 -9 4 5 7 9 10 11 12 13 11 8 6 4 3 6 8 8 6 4 -2 -4 -2 -0 -1 -4 -4 -4 -3 -4 -7 -10 -8 -6 -5 -4 -3 -1 0 3 6 7 5 3
-11 -8 -6 -7 -8 -10 -8 5 7 8 9 9 11 13 13 11 5 4 2 2 9 9 7 5 1 -2 -4 -3 -1 -1 -2 -3 -5 -7 -10 -11 -9 -7 -5 -5 -3 -3 -2 -1 -0 1 2 -2 1
-11 -11 -10 -10 -9 -9 4 8 8 8 9 9 10 13 13 10 3 4 2 4 7 7 6 3 0 -2 -4 -4 -2 -0 -0 -2 -3 -5 -6 -7 -5 -5 -5 -2 1 1 -1 -4 -6 -7 -7 0 4
-10 -8 -7 -9 -9 -9 6 9 9 9 9 9 9 10 10 5 3 3 4 9 8 7 5 2 0 -1 -2 -4 -3 -2 0 1 3 -1 -0 -3 -4 -4 -3 -2 -1 -2 -4 -5 -5 -5 -5 1 4
-11 -8 -8 -10 -10 -9 3 8 9 9 10 10 11 11 8 5 4 2 3 4 7 6 4 1 -0 -1 -1 -2 -3 -3 -0 2 4 4 1 1 -1 -1 -2 -3 -3 -2 4 4 4 3 5 9 9
-10 -8 -9 -9 -9 -6 2 8 10 10 10 10 12 11 6 5 4 2 2 1 0 2 2 1 0 -0 -1 -1 -1 -2 1 2 3 5 4 6 6 7 4 5 2 6 9 9 10 10 8 9 10
-9 -10 -9 -9 -9 -6 2 7 10 10 8 8 8 7 8 6 4 3 2 3 2 1 1 2 2 2 1 1 1 2 6 5 6 6 4 6 9 10 10 10 10 10 10 10 10 9 9 10 10
-10 -11 -10 -10 -11 -11 -4 6 9 9 8 8 9 9 9 7 5 4 3 3 4 3 3 4 4 4 3 3 5 4 5 8 10 9 7 9 9 9 10 10 9 9 10 9 9 9 10 10 10
-13 -12 -12 -12 -12 -11 -0 8 9 8 10 9 10 10 11 10 9 8 7 9 7 4 5 6 6 6 6 6 10 10 10 10 10 9 9 9 10 10 9 9 10 10 11 10 9 10 11 11 11
-12 -12 -13 -11 -11 -6 7 8 9 8 12 12 13 13 13 12 11 10 9 10 10 7 5 6 7 8 8 8 11 11 11 11 11 9 11 10 9 11 10 10 11 11 11 11 11 11 11 10 10
-12 -11 -11 -13 -10 0 4 1 4 8 12 14 14 14 13 13 12 11 10 11 10 8 6 7 8 9 10 10 11 12 11 12 11 11 11 11 11 10 12 12 11 11 11 10 10 10 10 10 10
-12 -12 -9 -10 -10 9 6 5 6 9 11 12 13 14 14 13 13 12 11 11 11 10 7 7 9 10 11 12 12 13 13 13 12 12 12 12 11 9 9 10 10 10 10 10 11 11 9 6 3
-11 -9 -9 -9 -10 -1 9 7 5 11 12 12 12 14 14 14 14 13 12 12 10 10 7 8 9 11 12 13 14 14 13 13 12 12 12 12 10 9 10 10 10 10 11 11 11 9 1 -6 -4
-13 -11 -10 -12 -13 -14 -13 -2 2 10 13 12 12 12 14 14 14 14 13 12 11 11 8 10 10 11 11 11 13 12 13 12 12 12 12 12 10 10 10 11 11 11 11 10 7 -5 -16 -13 -4
-11 -10 -11 -12 -13 -14 -14 -13 -7 10 12 12 12 12 12 13 14 14 14 13 13 12 11 11 11 11 11 11 12 12 12 12 13 13 12 11 10 10 11 11 11 11 9 3 -11 -23 -22 -13 -4
-10 -10 -11 -12 -13 -15 -13 -12 -2 9 10 11 12 12 12 12 13 13 13 13 13 12 12 11 11 10 11 10 12 13 13 13 13 12 12 11 10 10 11 11 10 9 2 -15 -25 -24 -20 -14 -5
-9 -11 -10 -10 -11 -10 -12 -9 -8 7 11 11 11 11 11 11 11 12 13 13 13 13 13 9 9 10 12 12 12 12 11 12 12 12 12 11 10 11 11 9 7 1 -12 -26 -25 -23 -12 -8 -7
-9 -10 -10 -10 -11 -12 -11 -11 -12 7 10 10 10 10 10 10 10 11 11 12 13 13 11 9 11 12 12 12 12 12 12 12 12 12 11 10 10 10 8 6 0 -11 -25 -27 -24 -19 -8 -2 -2
-13 -12 -12 -11 -11 -9 -11 -12 -12 9 8 7 8 8 8 8 8 8 8 9 11 10 9 10 11 12 12 12 12 13 12 12 12 11 11 10 10 9 7 3 -7 -22 -27 -26 -24 -21 -16 -8 -3
-12 -10 -7 -8 -8 -7 -12 -11 -12 -13 5 7 7 8 8 8 7 8 8 7 7 8 9 10 11 11 11 12 13 13 13 12 12 12 11 11 9 7 4 -4 -18 -25 -25 -24 -23 -22 -21 -20 -19
-10 -9 -4 -7 -7 -9 -11 -10 -13 -13 -12 0 4 7 8 9 8 9 9 10 9 8 8 9 10 11 11 12 13 13 13 12 12 12 11 10 7 5 -0 -14 -22 -23 -22 -22 -23 -23 -24 -26 -28
-10 -8 -10 -6 -7 -8 -9 -10 -13 -6 -5 -5 -6 1 7 9 9 8 8 10 9 9 8 9 10 12 13 11 13 12 12 12 11 11 10 8 6 2 -11 -20 -20 -20 -20 -21 -23 -24 -26 -27 -28
-9 -10 -7 -4 -4 -5 -7 -7 -4 -2 -2 -3 -3 -3 -2 -2 1 9 10 10 10 10 10 11 11 10 11 12 12 12 12 12 11 10 8 7 4 -6 -17 -18 -18 -19 -20 -20 -22 -24 -25 -26 -28
-3 -2 -3 -5 -5 -5 -5 0 -2 -2 -2 -1 -2 -3 -2 -2 -2 -4 4 9 10 11 10 10 12 11 11 12 12 11 11 11 10 8 7 5 1 -10 -15 -16 -17 -18 -19 -20 -21 -23 -25 -26 -27
-5 -4 -1 -2 -1 -2 -6 1 -3 -2 -1 -2 -4 -5 -3 -2 -1 -1 -1 8 9 10 11 11 12 12 12 11 11 11 11 10 9 8 5 2 -1 -10 -14 -14 -15 -16 -18 -20 -21 -23 -23 -25 -26
Wind_Speed
2 2 1 0 3 4 3 4 1 1 3 8 22 6 7 1 5 3 10 28 23 22 20 19 18 18 15 14 13 12 12 14 16 17 16 15 16 14 13 13 13 15 17 18 17 19 20 20 20
4 2 2 2 4 2 5 3 3 5 7 24 20 15 4 0 4 8 21 23 25 22 21 20 19 19 17 15 13 12 12 14 13 14 13 13 13 14 13 15 16 16 18 19 20 20 20 21 20
3 1 1 4 3 4 4 5 4 6 17 12 7 8 4 2 5 24 17 27 26 23 21 21 21 18 17 15 13 11 12 14 14 13 13 12 12 13 14 16 18 18 19 20 21 22 22 20 19
1 1 3 3 4 6 2 2 4 7 5 6 19 8 6 3 17 21 23 26 25 24 23 23 21 19 17 15 14 12 11 12 12 14 14 15 14 15 18 19 18 19 20 21 22 21 19 17 16
5 2 2 1 5 4 1 2 7 6 4 8 5 6 6 11 13 20 29 25 24 25 25 23 22 19 16 15 15 14 12 12 12 14 15 14 14 18 20 19 19 19 19 19 19 18 16 14 12
2 3 2 3 5 4 5 8 13 4 7 10 9 8 6 10 13 28 28 25 25 26 25 23 21 18 16 15 15 15 14 13 14 15 15 16 16 17 19 19 18 18 17 17 17 15 13 11 9
4 4 4 3 4 6 2 5 7 8 10 4 19 4 10 19 26 30 26 25 26 26 25 24 22 20 18 16 15 16 15 14 14 15 15 17 18 18 18 18 16 16 15 15 14 13 11 9 8
4 4 4 4 3 5 5 3 7 7 4 18 14 7 9 31 34 29 26 26 27 27 25 23 21 20 19 18 16 15 16 16 16 16 16 16 16 17 17 16 15 14 13 13 12 11 10 10 7
6 3 3 4 5 4 1 3 5 4 17 9 7 10 20 40 37 32 27 25 26 27 26 24 22 20 19 18 18 16 15 17 16 17 16 17 16 15 15 14 14 13 12 11 10 10 9 9 6
4 4 8 6 5 2 1 1 10 6 11 4 9 8 40 42 39 38 33 30 28 28 28 25 23 21 19 19 18 18 18 17 16 16 16 16 16 15 14 13 12 12 11 10 10 9 9 7 5
6 6 5 5 13 2 1 2 9 7 6 12 24 33 44 41 40 37 34 31 29 28 27 25 23 21 20 19 19 19 18 17 16 16 15 16 16 15 14 13 12 12 9 10 8 6 4 4 2
4 9 6 4 5 3 2 2 5 16 7 16 27 38 44 45 44 41 36 32 30 28 25 24 23 21 21 20 19 19 18 15 14 14 13 14 13 12 10 10 11 9 8 7 5 2 2 1 1
4 4 6 7 3 9 8 7 4 14 10 15 30 43 41 46 45 41 35 31 29 28 26 25 23 21 21 20 19 19 17 15 13 11 12 12 10 8 8 7 7 6 3 4 4 2 3 4 4
7 5 6 6 7 7 5 1 2 10 12 16 32 44 43 48 47 44 41 35 32 30 29 26 25 22 21 21 21 19 17 14 13 11 10 10 7 7 7 6 7 6 3 4 4 7 7 8 9
2 4 4 6 7 7 7 3 8 11 16 21 31 35 34 40 44 45 42 36 31 33 31 30 26 25 23 23 22 20 16 13 11 12 9 6 7 6 6 5 5 6 5 7 8 10 11 11 11
2 3 3 3 6 5 11 8 13 14 22 25 28 30 33 39 46 44 42 38 30 34 34 31 29 28 26 24 23 20 17 15 12 12 10 8 8 9 9 9 9 10 11 11 10 10 9 9 8
6 3 4 4 2 4 4 6 7 19 26 23 26 30 35 38 43 45 44 39 34 31 34 33 31 30 27 25 23 22 20 17 15 13 11 11 11 10 10 11 12 11 12 13 12 10 9 9 8
6 4 3 2 4 3 5 8 6 12 23 26 27 26 31 33 42 44 43 39 37 32 34 35 34 33 28 26 24 24 23 21 18 16 14 14 12 12 12 12 13 14 14 14 13 11 10 10 12
5 3 1 3 4 1 4 6 9 10 12 10 20 25 28 32 32 35 39 39 40 34 36 36 35 34 32 29 28 26 26 24 21 19 17 15 14 15 15 15 15 15 14 14 12 11 11 13 17
3 3 3 5 6 5 5 9 10 7 13 26 28 28 25 23 27 32 38 41 41 38 37 36 36 35 33 32 30 27 26 25 23 21 19 17 16 16 17 17 16 14 13 12 11 11 12 16 22
4 6 5 6 2 2 4 6 6 5 9 17 18 17 17 23 29 33 37 43 43 42 39 37 36 35 33 32 32 30 29 27 27 24 22 19 19 18 17 16 14 13 12 11 10 10 10 16 22
4 9 7 5 3 3 4 4 5 5 9 8 21 22 25 28 32 35 38 44 46 45 40 38 37 36 35 34 35 33 31 32 31 25 22 21 19 17 16 15 13 12 12 11 10 10 11 14 18
8 6 8 5 5 2 1 2 7 0 7 10 13 22 30 33 37 42 44 45 46 46 42 41 40 39 38 36 36 35 32 30 29 26 23 21 19 16 15 14 13 12 11 10 9 12 16 20 17
3 5 6 4 4 1 4 5 5 5 8 7 17 19 28 36 38 40 39 39 45 46 44 45 44 43 43 40 39 37 34 31 31 27 24 21 19 17 16 15 13 12 11 9 9 12 15 17 19
4 6 2 1 0 5 3 4 6 5 7 8 10 24 27 33 38 40 41 44 46 48 48 49 50 49 46 46 42 40 36 31 28 26 23 21 20 17 16 14 12 11 10 9 10 11 13 13 13
6 8 5 6 4 5 1 5 4 3 9 5 12 22 24 30 35 38 40 43 46 48 48 49 52 53 52 48 45 43 36 32 28 26 22 19 18 15 15 15 13 11 11 10 11 11 12 12 12
5 5 6 6 2 3 3 6 4 14 16 17 21 18 5 17 30 38 41 42 41 43 46 46 50 53 52 47 47 41 34 33 31 26 23 20 18 17 16 15 13 12 12 11 11 11 12 12 11
5 5 4 2 6 4 2 3 3 8 8 10 14 20 22 16 6 25 34 39 44 46 47 50 49 48 47 46 43 38 34 32 28 27 24 21 19 18 17 16 14 13 13 13 13 13 13 13 12
5 3 4 5 4 6 4 2 2 4 6 6 8 18 25 25 21 12 22 37 43 49 51 51 49 48 48 44 40 36 33 32 28 26 24 22 20 18 18 17 16 16 15 15 14 14 14 12 11
5 3 3 4 5 1 5 3 1 0 4 8 14 22 26 30 28 17 7 21 36 44 49 50 51 48 47 41 36 32 35 30 30 27 26 24 21 20 19 18 18 17 17 17 16 15 14 11 11
Wind_Direction
356 346 186 99 51 66 255 247 249 191 199 161 148 155 182 340 150 202 156 163 163 157 159 157 154 153 151 150 143 135 131 127 126 130 131 123 110 101 102 102 112 120 123 125 125 117 109 106 103
311 313 152 115 100 94 261 221 211 199 162 133 132 110 111 61 107 134 152 169 171 160 160 155 154 152 152 150 144 141 137 134 133 129 126 126 116 107 105 109 113 114 117 119 119 115 109 106 101
324 162 185 108 136 189 213 196 201 87 138 133 110 106 106 109 138 152 159 156 166 162 156 152 153 153 151 147 145 141 140 138 138 133 128 130 121 112 109 111 111 111 110 112 113 111 108 103 98
212 157 68 97 236 252 163 225 178 131 99 136 129 89 91 180 154 156 158 161 167 157 153 151 153 153 152 147 142 136 136 136 134 135 131 129 125 118 117 116 114 112 108 109 113 114 112 107 98
198 122 51 340 260 269 184 179 155 146 118 150 134 137 97 126 150 159 157 165 162 153 153 154 153 151 147 143 138 134 131 126 124 125 124 123 127 125 123 120 120 115 111 114 118 119 115 107 95
122 107 69 248 261 272 284 213 154 121 135 131 111 109 129 151 168 157 161 165 158 156 156 157 154 149 144 142 138 136 132 125 121 122 121 120 118 121 122 120 118 115 117 119 124 125 121 112 105
144 106 206 211 267 318 302 136 152 149 141 149 141 86 143 161 161 160 165 164 160 161 161 160 156 150 145 144 141 137 134 127 122 120 118 119 122 126 125 125 123 119 117 121 126 130 132 123 97
206 108 161 227 250 272 347 100 149 121 174 155 157 162 172 169 165 165 166 164 165 165 166 165 161 155 150 147 145 140 138 134 129 125 123 121 121 123 127 128 127 127 128 130 132 131 129 129 116
177 78 196 232 171 240 123 118 147 132 143 156 211 189 173 161 163 166 168 168 169 170 171 170 167 162 156 152 150 147 142 138 133 132 127 128 128 130 132 136 138 139 135 131 127 129 134 140 128
130 146 217 217 194 210 359 163 166 149 155 130 107 149 161 162 167 169 173 173 177 177 176 175 171 168 164 160 156 155 153 148 143 139 133 135 135 136 139 140 140 136 130 129 126 128 138 128 133
171 187 226 252 237 176 180 244 182 163 222 187 160 157 162 167 172 174 176 180 181 181 181 177 175 173 171 168 166 165 164 161 158 154 151 149 146 141 142 141 143 142 131 138 125 123 142 151 128
160 238 211 262 256 273 231 202 195 187 216 209 181 169 169 173 178 178 178 180 182 184 183 180 178 179 174 175 173 174 173 170 165 164 164 161 158 155 150 150 145 142 145 141 145 177 127 341 333
181 246 226 243 274 271 269 235 206 226 242 188 178 176 181 179 182 182 179 177 183 187 187 185 182 184 181 179 179 178 182 182 175 170 171 169 177 180 176 174 182 185 201 197 189 208 201 255 270
201 219 256 245 239 233 203 292 143 214 210 179 184 184 189 186 184 182 182 181 187 190 190 191 187 186 190 185 184 184 185 188 197 188 181 182 184 198 187 201 205 184 168 193 213 238 257 273 275
235 286 283 212 212 222 168 297 234 193 185 175 178 184 187 191 191 187 185 184 189 194 191 193 191 190 192 191 192 195 199 199 192 193 195 196 223 229 224 220 208 219 252 268 263 267 275 277 275
116 49 233 272 175 233 168 240 255 177 180 182 179 184 187 194 200 194 192 192 190 196 193 195 193 193 194 198 199 203 206 211 213 211 221 239 256 246 240 249 255 261 272 279 280 280 276 273 270
4 219 198 274 220 136 153 237 280 178 185 183 187 188 191 197 201 201 199 198 194 197 195 197 197 196 201 206 212 215 219 225 225 223 232 252 265 250 255 260 269 274 276 280 281 281 271 255 224
195 201 245 233 334 65 187 249 282 208 188 195 195 187 192 195 201 200 204 200 201 199 198 200 201 203 206 214 221 223 225 228 223 227 237 250 257 253 250 256 263 268 273 275 271 263 249 239 213
141 162 157 278 269 339 238 222 264 221 216 202 198 199 196 199 200 203 204 204 206 202 201 202 203 209 211 215 219 222 220 219 222 228 239 247 250 251 255 261 267 269 269 268 262 253 242 210 192
126 157 256 276 265 156 259 258 264 179 222 212 207 209 202 199 195 203 206 209 211 208 208 208 210 215 216 220 223 224 221 221 226 234 243 246 248 251 257 261 266 265 265 261 260 255 226 198 185
164 157 207 209 6 225 127 300 274 233 236 229 239 235 223 213 207 207 211 213 212 213 214 215 215 218 220 222 222 221 222 225 229 234 238 240 246 250 253 257 256 259 258 258 254 242 223 202 185
184 207 197 217 115 214 151 254 267 255 243 206 227 226 221 217 219 217 215 216 215 216 217 217 217 217 221 224 223 228 232 233 235 236 238 240 242 247 252 251 254 252 256 253 240 228 212 206 197
214 150 192 195 179 141 251 78 276 167 261 246 227 219 221 221 224 223 223 223 219 221 219 217 219 218 220 224 224 228 230 236 240 238 237 238 241 246 244 248 250 253 252 242 218 209 202 202 210
162 102 53 53 98 267 200 153 268 204 208 252 247 234 213 218 224 229 229 226 222 223 219 217 219 220 222 223 223 226 230 231 230 232 233 237 239 242 248 245 248 250 245 230 210 198 198 207 217
109 86 31 16 341 204 228 157 247 243 239 220 236 242 238 224 224 224 222 222 224 226 225 220 218 222 225 224 224 227 229 229 236 239 237 235 234 243 241 240 240 239 230 215 200 192 191 196 198
184 161 158 181 185 197 164 232 239 317 19 300 294 257 246 235 229 231 233 230 227 228 230 228 222 222 224 222 224 226 224 228 234 230 232 230 236 238 237 235 231 225 216 205 193 186 181 175 171
201 167 175 99 34 99 212 320 47 28 28 29 34 42 322 236 239 238 236 238 237 231 227 222 223 224 222 226 225 224 226 229 228 220 221 224 227 230 227 227 221 212 204 197 189 182 178 167 161
149 165 103 11 149 196 336 57 334 356 21 13 11 8 9 18 304 253 246 241 234 230 225 223 225 228 232 229 225 226 230 226 217 221 219 221 223 224 223 219 209 206 198 191 183 179 173 169 157
353 56 59 119 151 175 136 243 9 349 10 13 0 7 11 7 359 312 251 247 242 237 232 233 232 233 232 230 226 225 229 219 215 218 221 220 223 222 222 213 207 201 195 187 183 179 172 169 161
68 41 40 151 202 160 137 210 330 66 40 24 12 13 16 18 11 354 276 245 244 241 239 237 234 231 232 230 226 229 225 217 216 219 218 219 220 219 217 211 205 197 192 186 184 183 172 169 161
Height
1488 1489 1489 1490 1500 1500 1500 1491 1481 1485 1483 1479 1485 1490 1494 1494 1495 1512 1502 1506 1509 1511 1514 1517 1520 1523 1526 1528 1529 1530 1531 1532 1533 1534 1535 1536 1536 1538 1539 1540 1541 1542 1543 1544 1545 1547 1548 1549 1551
1487 1488 1489 1489 1504 1509 1499 1482 1481 1479 1479 1477 1484 1488 1493 1497 1495 1497 1504 1507 1511 1512 1515 1518 1522 1525 1527 1529 1530 1532 1532 1533 1534 1535 1537 1538 1538 1539 1540 1541 1543 1544 1545 1546 1547 1549 1551 1553 1555
1487 1487 1489 1493 1505 1504 1495 1482 1477 1478 1480 1478 1484 1488 1493 1496 1496 1498 1504 1508 1512 1514 1516 1519 1523 1526 1529 1531 1532 1533 1534 1534 1535 1536 1538 1540 1541 1541 1542 1543 1544 1546 1547 1549 1551 1553 1555 1557 1558
1486 1488 1490 1498 1499 1486 1481 1478 1476 1478 1480 1480 1482 1490 1494 1495 1496 1501 1506 1511 1514 1515 1518 1520 1524 1527 1530 1532 1534 1535 1536 1537 1538 1538 1539 1541 1543 1544 1545 1546 1547 1549 1550 1552 1554 1556 1558 1559 1561
1485 1486 1497 1499 1495 1482 1478 1475 1474 1476 1478 1481 1481 1490 1494 1496 1498 1502 1507 1512 1515 1517 1520 1523 1526 1529 1531 1533 1535 1536 1537 1539 1540 1541 1542 1543 1545 1545 1547 1548 1550 1551 1553 1555 1557 1559 1560 1562 1563
1484 1485 1500 1503 1492 1479 1474 1473 1473 1476 1478 1481 1483 1487 1495 1496 1499 1503 1507 1512 1516 1519 1522 1525 1528 1530 1532 1534 1536 1538 1539 1541 1542 1542 1544 1545 1547 1548 1550 1551 1553 1554 1556 1558 1560 1561 1562 1563 1564
1483 1488 1495 1492 1491 1482 1473 1472 1473 1476 1478 1482 1483 1490 1494 1495 1499 1504 1509 1512 1517 1521 1524 1526 1529 1531 1533 1535 1538 1540 1541 1543 1544 1545 1546 1547 1549 1551 1552 1554 1556 1558 1559 1560 1561 1563 1564 1565 1566
1480 1483 1490 1487 1489 1484 1473 1472 1475 1475 1480 1478 1484 1485 1492 1490 1496 1504 1509 1513 1517 1521 1525 1528 1530 1532 1534 1536 1539 1540 1543 1544 1546 1547 1548 1549 1551 1552 1554 1555 1557 1559 1560 1561 1563 1564 1565 1566 1567
1479 1489 1493 1483 1484 1477 1473 1474 1476 1477 1478 1480 1482 1478 1481 1486 1494 1502 1509 1514 1517 1521 1524 1528 1531 1533 1535 1538 1540 1542 1544 1545 1547 1549 1550 1551 1553 1554 1555 1557 1558 1559 1561 1562 1563 1564 1565 1566 1567
1477 1488 1482 1471 1471 1472 1472 1473 1474 1477 1478 1480 1480 1479 1482 1487 1491 1495 1503 1510 1517 1521 1524 1528 1531 1533 1536 1538 1540 1543 1545 1547 1549 1550 1552 1553 1554 1556 1557 1558 1559 1560 1562 1562 1563 1564 1565 1567 1567
1475 1480 1472 1467 1468 1470 1471 1472 1473 1474 1478 1474 1474 1478 1483 1487 1492 1495 1501 1506 1513 1519 1524 1528 1531 1533 1536 1538 1540 1542 1545 1547 1550 1552 1553 1555 1556 1557 1558 1559 1560 1562 1563 1564 1565 1565 1566 1567 1568
1473 1469 1468 1467 1467 1469 1469 1469 1470 1471 1469 1471 1472 1473 1478 1482 1487 1490 1496 1504 1510 1517 1523 1527 1531 1534 1536 1539 1541 1543 1546 1548 1550 1552 1554 1556 1557 1559 1560 1561 1562 1563 1564 1564 1565 1566 1567 1567 1568
1469 1467 1466 1466 1467 1467 1467 1467 1469 1467 1467 1469 1473 1476 1476 1480 1486 1491 1497 1501 1509 1515 1522 1526 1530 1534 1537 1538 1541 1543 1545 1548 1551 1553 1555 1557 1558 1559 1561 1562 1563 1563 1564 1565 1565 1565 1566 1567 1567
1464 1465 1464 1464 1464 1464 1464 1466 1466 1463 1465 1467 1469 1473 1476 1478 1481 1487 1493 1497 1504 1512 1518 1525 1529 1533 1537 1539 1541 1544 1546 1548 1551 1554 1555 1557 1558 1559 1560 1561 1562 1563 1563 1564 1564 1564 1565 1565 1565
1463 1466 1463 1462 1461 1462 1462 1466 1463 1461 1464 1467 1469 1474 1477 1482 1485 1483 1489 1491 1500 1507 1514 1520 1528 1532 1536 1540 1541 1543 1546 1548 1550 1553 1555 1556 1558 1559 1560 1561 1561 1562 1563 1563 1564 1563 1563 1563 1563
1464 1468 1472 1460 1458 1458 1461 1471 1453 1459 1462 1465 1468 1471 1476 1479 1483 1484 1489 1493 1498 1504 1511 1518 1524 1529 1533 1539 1541 1543 1545 1547 1550 1551 1553 1555 1556 1557 1559 1560 1560 1561 1561 1561 1561 1561 1561 1561 1560
1475 1479 1473 1463 1457 1457 1462 1466 1451 1455 1458 1464 1466 1468 1472 1476 1481 1484 1488 1493 1497 1501 1509 1516 1522 1527 1531 1536 1540 1542 1544 1545 1548 1550 1552 1554 1555 1556 1557 1558 1559 1559 1559 1559 1559 1559 1559 1559 1559
1477 1474 1471 1465 1461 1458 1463 1461 1452 1454 1456 1457 1462 1465 1469 1474 1477 1480 1486 1492 1499 1501 1507 1513 1518 1523 1529 1534 1538 1540 1542 1544 1546 1548 1551 1553 1555 1556 1557 1557 1558 1558 1558 1558 1557 1557 1557 1557 1557
1465 1467 1468 1467 1461 1460 1460 1460 1454 1452 1455 1457 1461 1464 1467 1471 1476 1480 1483 1490 1496 1500 1504 1510 1513 1519 1524 1530 1533 1536 1539 1542 1544 1547 1549 1551 1553 1554 1555 1555 1556 1556 1556 1555 1555 1555 1554 1555 1555
1463 1467 1471 1468 1460 1463 1463 1462 1453 1453 1449 1447 1449 1456 1463 1470 1474 1476 1479 1485 1492 1497 1501 1506 1510 1515 1520 1526 1532 1535 1538 1540 1542 1545 1546 1548 1550 1551 1552 1553 1553 1553 1553 1553 1553 1552 1551 1552 1554
1465 1469 1467 1466 1461 1459 1463 1468 1455 1448 1448 1449 1451 1455 1461 1465 1469 1472 1476 1480 1487 1493 1496 1501 1507 1511 1517 1522 1527 1531 1535 1537 1539 1541 1544 1546 1547 1549 1550 1550 1550 1551 1551 1551 1551 1550 1550 1550 1552
1463 1457 1457 1461 1467 1475 1460 1481 1460 1452 1447 1447 1447 1451 1455 1460 1465 1469 1473 1477 1480 1486 1492 1498 1502 1507 1514 1518 1522 1526 1528 1532 1536 1539 1541 1543 1544 1545 1547 1548 1548 1548 1548 1549 1549 1549 1549 1550 1550
1455 1451 1456 1458 1465 1464 1462 1473 1464 1453 1452 1444 1444 1448 1451 1454 1457 1460 1465 1470 1478 1482 1488 1494 1499 1504 1509 1515 1519 1523 1525 1529 1533 1535 1536 1539 1540 1542 1544 1545 1546 1546 1546 1545 1547 1548 1548 1551 1551
1442 1452 1460 1466 1470 1479 1466 1469 1469 1457 1444 1441 1437 1442 1447 1451 1454 1457 1463 1470 1473 1478 1484 1490 1495 1500 1504 1509 1513 1517 1520 1523 1527 1529 1531 1535 1537 1539 1541 1542 1543 1544 1544 1544 1544 1546 1547 1549 1550
1443 1457 1478 1477 1480 1481 1463 1468 1455 1443 1440 1437 1436 1436 1439 1445 1449 1452 1456 1461 1465 1470 1476 1481 1487 1492 1496 1500 1504 1509 1514 1518 1523 1525 1527 1531 1534 1536 1538 1539 1540 1541 1542 1542 1543 1544 1546 1548 1548
1444 1449 1468 1468 1481 1474 1462 1465 1451 1443 1441 1440 1438 1438 1439 1441 1444 1448 1452 1457 1460 1464 1469 1475 1480 1483 1487 1493 1500 1504 1508 1514 1517 1519 1524 1526 1531 1533 1535 1538 1539 1539 1540 1542 1542 1543 1546 1548 1549
1441 1449 1443 1464 1466 1470 1466 1459 1446 1446 1444 1442 1441 1441 1444 1445 1444 1444 1446 1449 1456 1459 1462 1468 1473 1479 1483 1489 1493 1499 1505 1508 1511 1515 1519 1522 1526 1530 1532 1535 1537 1538 1539 1541 1542 1544 1546 1548 1548
1431 1434 1451 1462 1469 1468 1467 1468 1470 1463 1456 1451 1447 1446 1446 1445 1446 1446 1447 1451 1452 1455 1459 1463 1467 1473 1480 1484 1490 1495 1501 1504 1508 1512 1516 1519 1524 1527 1530 1532 1535 1537 1538 1540 1542 1543 1545 1548 1548
1440 1440 1443 1447 1455 1456 1469 1479 1463 1464 1460 1456 1453 1451 1448 1444 1442 1440 1442 1445 1448 1451 1455 1460 1464 1469 1473 1478 1484 1491 1496 1500 1506 1510 1514 1518 1522 1525 1528 1529 1532 1534 1536 1538 1541 1543 1545 1547 1548
1447 1452 1452 1449 1452 1455 1456 1478 1463 1462 1461 1458 1454 1450 1450 1447 1441 1436 1436 1439 1442 1444 1449 1454 1457 1463 1468 1475 1482 1487 1492 1497 1502 1507 1511 1516 1519 1522 1525 1529 1531 1533 1535 1537 1539 1542 1545 1546 1547